Hourly Weather Barseevo

Today, 18 April, Sunday

Time Temperature Precipitation Wind Pressure Humidity
00:00 +8°C° 0 mm 4 mps 746 mmHg 86%
01:00 +7°C° 0 mm 4 mps 746 mmHg 86%
02:00 +6°C° 0 mm 4 mps 746 mmHg 86%
03:00 +6°C° 0 mm 4 mps 746 mmHg 87%
04:00 +5°C° 0 mm 4 mps 746 mmHg 87%
05:00 +5°C° 0 mm 4 mps 746 mmHg 87%
06:00 +6°C° 0 mm 4 mps 746 mmHg 81%
07:00 +6°C° 0 mm 5 mps 746 mmHg 75%
08:00 +7°C° 0 mm 5 mps 746 mmHg 69%
09:00 +8°C° 0 mm 5 mps 747 mmHg 65%
10:00 +10°C° 0 mm 5 mps 747 mmHg 61%
11:00 +12°C° 0 mm 5 mps 747 mmHg 56%
12:00 +12°C° 0 mm 5 mps 747 mmHg 54%
13:00 +13°C° 0 mm 5 mps 747 mmHg 52%
14:00 +13°C° 0 mm 5 mps 747 mmHg 50%
15:00 +13°C° 0 mm 4 mps 747 mmHg 54%
16:00 +12°C° 0 mm 4 mps 747 mmHg 57%
17:00 +11°C° 0 mm 3 mps 747 mmHg 61%
18:00 +12°C° 0 mm 2 mps 748 mmHg 65%
19:00 +10°C° 0 mm 2 mps 748 mmHg 68%
20:00 +9°C° 0 mm 2 mps 748 mmHg 72%
21:00 +8°C° 0 mm 2 mps 748 mmHg 76%
22:00 +8°C° 0 mm 2 mps 748 mmHg 81%
23:00 +7°C° 0 mm 2 mps 748 mmHg 85%

Tomorrow, 19 April, Monday

Time Temperature Precipitation Wind Pressure Humidity
00:00 +7°C° 0 mm 2 mps 749 mmHg 86%
01:00 +5°C° 0 mm 3 mps 749 mmHg 86%
02:00 +5°C° 0 mm 3 mps 749 mmHg 87%
03:00 +5°C° 0 mm 3 mps 749 mmHg 86%
04:00 +5°C° 0 mm 3 mps 749 mmHg 86%
05:00 +5°C° 0 mm 3 mps 749 mmHg 85%
06:00 +5°C° 0 mm 4 mps 749 mmHg 83%
07:00 +6°C° 0 mm 4 mps 749 mmHg 81%
08:00 +6°C° 0 mm 4 mps 749 mmHg 79%
09:00 +7°C° 0 mm 4 mps 749 mmHg 76%
10:00 +8°C° 0 mm 4 mps 749 mmHg 73%
11:00 +8°C° 0 mm 4 mps 749 mmHg 69%
12:00 +8°C° 0.1 mm 5 mps 749 mmHg 71%
13:00 +8°C° 0.1 mm 5 mps 749 mmHg 73%
14:00 +8°C° 0.1 mm 5 mps 749 mmHg 75%
15:00 +7°C° 0.1 mm 5 mps 749 mmHg 79%
16:00 +6°C° 0.1 mm 5 mps 749 mmHg 83%
17:00 +6°C° 0.1 mm 4 mps 749 mmHg 87%
18:00 +5°C° 0 mm 4 mps 749 mmHg 86%
19:00 +5°C° 0 mm 4 mps 749 mmHg 86%
20:00 +5°C° 0 mm 3 mps 749 mmHg 86%
21:00 +5°C° 0 mm 3 mps 749 mmHg 86%
22:00 +5°C° 0 mm 3 mps 749 mmHg 86%
23:00 +5°C° 0 mm 2 mps 748 mmHg 87%

Day after tomorrow, 20 April, Tuesday

Time Temperature Precipitation Wind Pressure Humidity
00:00 +4°C° 0 mm 3 mps 748 mmHg 87%
01:00 +4°C° 0 mm 3 mps 748 mmHg 87%
02:00 +4°C° 0 mm 3 mps 747 mmHg 88%
03:00 +3°C° 0.1 mm 3 mps 747 mmHg 88%
04:00 +3°C° 0.1 mm 3 mps 747 mmHg 89%
05:00 +3°C° 0.1 mm 3 mps 746 mmHg 90%
06:00 +3°C° 0 mm 4 mps 746 mmHg 85%
07:00 +3°C° 0 mm 4 mps 746 mmHg 81%
08:00 +3°C° 0 mm 4 mps 746 mmHg 76%
09:00 +3°C° 0 mm 4 mps 745 mmHg 75%
10:00 +3°C° 0 mm 4 mps 745 mmHg 75%
11:00 +4°C° 0 mm 4 mps 745 mmHg 74%
12:00 +3°C° 0.2 mm 4 mps 744 mmHg 79%
13:00 +3°C° 0.2 mm 3 mps 744 mmHg 84%
14:00 +3°C° 0.2 mm 3 mps 744 mmHg 90%
15:00 +3°C° 0.3 mm 3 mps 743 mmHg 91%
16:00 +2°C° 0.3 mm 3 mps 743 mmHg 93%
17:00 +2°C° 0.3 mm 3 mps 742 mmHg 95%
18:00 +2°C° 0.1 mm 3 mps 742 mmHg 95%
19:00 +2°C° 0.1 mm 3 mps 741 mmHg 96%
20:00 +2°C° 0.1 mm 3 mps 741 mmHg 97%
21:00 +1°C° 0 mm 4 mps 740 mmHg 97%
22:00 +1°C° 0 mm 4 mps 739 mmHg 97%
23:00 +1°C° 0 mm 4 mps 739 mmHg 96%

21 April, Wednesday

Time Temperature Precipitation Wind Pressure Humidity
00:00 +1°C° 0.3 mm 4 mps 738 mmHg 96%
01:00 +1°C° 0.3 mm 4 mps 737 mmHg 96%
02:00 0°C° 0.3 mm 5 mps 736 mmHg 96%
03:00 0°C° 0.8 mm 5 mps 736 mmHg 97%
04:00 0°C° 0.8 mm 5 mps 736 mmHg 97%
05:00 0°C° 0.8 mm 5 mps 735 mmHg 97%
06:00 0°C° 0.4 mm 5 mps 735 mmHg 97%
07:00 +1°C° 0.4 mm 5 mps 735 mmHg 97%
08:00 +1°C° 0.4 mm 5 mps 735 mmHg 96%
09:00 +1°C° 0.1 mm 5 mps 735 mmHg 96%
10:00 +1°C° 0.1 mm 5 mps 735 mmHg 95%
11:00 +2°C° 0.1 mm 5 mps 736 mmHg 94%
12:00 +2°C° 0 mm 5 mps 736 mmHg 88%
13:00 +3°C° 0 mm 5 mps 736 mmHg 83%
14:00 +5°C° 0 mm 5 mps 737 mmHg 77%
15:00 +5°C° 0 mm 5 mps 737 mmHg 76%
16:00 +5°C° 0 mm 4 mps 738 mmHg 76%
17:00 +5°C° 0 mm 4 mps 738 mmHg 75%
18:00 +5°C° 0 mm 4 mps 738 mmHg 78%
19:00 +4°C° 0 mm 3 mps 739 mmHg 82%
20:00 +5°C° 0 mm 2 mps 739 mmHg 85%
21:00 +3°C° 0 mm 3 mps 739 mmHg 86%
22:00 +3°C° 0 mm 3 mps 740 mmHg 88%
23:00 +2°C° 0 mm 3 mps 740 mmHg 89%

22 April, Thursday

Time Temperature Precipitation Wind Pressure Humidity
00:00 +2°C° 0 mm 3 mps 740 mmHg 89%
01:00 +1°C° 0 mm 3 mps 741 mmHg 89%
02:00 +2°C° 0 mm 2 mps 741 mmHg 89%
03:00 +2°C° 0 mm 2 mps 741 mmHg 90%
04:00 +2°C° 0 mm 2 mps 742 mmHg 90%
05:00 +2°C° 0 mm 2 mps 742 mmHg 91%
06:00 +4°C° 0 mm 2 mps 742 mmHg 85%
07:00 +6°C° 0 mm 2 mps 743 mmHg 80%
08:00 +8°C° 0 mm 2 mps 743 mmHg 75%
09:00 +9°C° 0 mm 3 mps 743 mmHg 69%
10:00 +11°C° 0 mm 3 mps 743 mmHg 63%
11:00 +12°C° 0 mm 3 mps 744 mmHg 58%
12:00 +13°C° 0.2 mm 3 mps 744 mmHg 55%
13:00 +13°C° 0.2 mm 3 mps 744 mmHg 52%
14:00 +14°C° 0.2 mm 4 mps 744 mmHg 50%
15:00 +14°C° 0.1 mm 3 mps 744 mmHg 52%
16:00 +14°C° 0.1 mm 3 mps 744 mmHg 54%
17:00 +13°C° 0.1 mm 3 mps 744 mmHg 56%
18:00 +13°C° 0 mm 2 mps 744 mmHg 62%
19:00 +12°C° 0 mm 2 mps 744 mmHg 68%
20:00 +10°C° 0 mm 2 mps 744 mmHg 75%
21:00 +9°C° 0.2 mm 2 mps 744 mmHg 80%
22:00 +8°C° 0.2 mm 2 mps 744 mmHg 84%
23:00 +8°C° 0.2 mm 2 mps 744 mmHg 89%

23 April, Friday

Time Temperature Precipitation Wind Pressure Humidity
00:00 +8°C° 0.2 mm 1 mps 744 mmHg 90%
01:00 +8°C° 0.2 mm 1 mps 744 mmHg 91%
02:00 +8°C° 0.2 mm 1 mps 744 mmHg 92%
03:00 +6°C° 0.2 mm 2 mps 744 mmHg 93%
04:00 +6°C° 0.2 mm 2 mps 744 mmHg 94%
05:00 +6°C° 0.2 mm 2 mps 743 mmHg 95%
06:00 +7°C° 0 mm 3 mps 743 mmHg 90%
07:00 +8°C° 0 mm 4 mps 743 mmHg 85%
08:00 +10°C° 0 mm 4 mps 743 mmHg 80%
09:00 +10°C° 0 mm 5 mps 743 mmHg 74%
10:00 +13°C° 0 mm 5 mps 743 mmHg 69%
11:00 +14°C° 0 mm 6 mps 743 mmHg 63%
12:00 +14°C° 0.4 mm 6 mps 743 mmHg 66%
13:00 +13°C° 0.4 mm 6 mps 744 mmHg 68%
14:00 +13°C° 0.4 mm 6 mps 744 mmHg 71%
15:00 +10°C° 0.1 mm 6 mps 744 mmHg 75%
16:00 +9°C° 0.1 mm 6 mps 745 mmHg 79%
17:00 +7°C° 0.1 mm 5 mps 745 mmHg 83%
18:00 +6°C° 0 mm 5 mps 745 mmHg 84%
19:00 +5°C° 0 mm 4 mps 746 mmHg 85%
20:00 +4°C° 0 mm 4 mps 746 mmHg 86%
21:00 +4°C° 0 mm 4 mps 746 mmHg 88%
22:00 +3°C° 0 mm 3 mps 747 mmHg 89%
23:00 +3°C° 0 mm 3 mps 747 mmHg 90%
Show more